Location: Bishopstone
(51.0167°N, 1.9000°W)
Time: 12:26:03
(UTC+00:00)

Cosmos 2237 Rocket - Pass Details

Date: 16 September 2019
Orbit: 833 x 852 km, 71.0° (Epoch: 20 October)

Event Time Altitude Azimuth Distance (km) Brightness Sun altitude
Rises 21:54:20 0° 319° (NW) 3,426 6.6 -29.9°
Reaches altitude 10° 21:57:40 10° 299° (WNW) 2,486 5.4 -30.3°
Maximum altitude 22:01:05 17° 262° (W) 2,057 4.4 -30.6°
Enters shadow 22:02:59 14° 239° (WSW) 2,194 4.4 -30.8°
